Location: Absher
(46.5583°N, 107.9840°W)
Time: 06:38:33
(UTC+00:00)

STRAND 1 - Pass Details

Date: 04 April 2023
Orbit: 767 x 779 km, 98.4° (Epoch: 03 June)

Event Time Altitude Azimuth Distance (km) Brightness Sun altitude
Rises 03:25:34 0° 2° (N) 3,251 ? -17.4°
Reaches altitude 10° 03:28:19 10° 348° (NNW) 2,319 ? -17.8°
Maximum altitude 03:32:10 22° 299° (WNW) 1,633 ? -18.3°
Drops below altitude 10° 03:36:00 10° 250° (WSW) 2,307 ? -18.9°
Sets 03:38:44 0° 235° (SW) 3,230 ? -19.3°
